Погода в Мариуполе

Поиск расширенной информации на нашем сайте:

Полезная информация:

Новости сайта



02.01.2020
Опубликован Долгосрочный прогноз погоды по городам России и ближнего зарубежья на январь 2020 года.
Карты: Прогноз на январь и февраль 2020 года, Сравнение прогнозируемой аномалии приземной температуры воздуха на январь 2020 года по разным моделям.




Погода в Мариуполе - сегодня

Время (UTC), дата Ветер
(°,м/с) 
Видим.   Явления Облачность Т
(°С)
Тd
(°С)
f(%) Тe
(°С)
Pmin
(гПа)
dP
(гПа)
Po
(мм)
O2
(г/м3)
Тmin Tmax R s Состояние
почвы
12 16.04.21 180 (Ю) 20000 м    9/3 600 м средняя 
[Cu hum|Ac trans]
+10.2 +7.2 82 +10  1018.9  0.2  758  293           
15 16.04.21 160 (Ю) 20000 м    6/0 средняя, верхняя 
[Ac trans|Cs]
+9.4 +7.7 89 +9  1018.1  -0.8  757  294           
18 16.04.21 260 (З) 20000 м    9/4 750 м верхняя 
[Sc|Cs]
+8.4 +7.8 96 +8  1018.6  0.5  758  295    +11.6       
21 16.04.21 220 (ЮЗ) 10 км    5/0 средняя 
[Ac trans]
+7.9 +7.5 97 +7  1018.9  0.3  758  295         
00 17.04.21 280 (З) 10 км  {ливн. осадки}  6/3 720 м кучево-дожд., средняя 
[Cb cap|Ac As]
+7.7 +7.3 97 +9  1019  0.1  758  296           
03 17.04.21 300 (СЗ) 4000 м  туман  10/10 660 м 
[St|Ac und]
+5.8 +5.6 99 +4  1019.9  0.8  758  298           
06 17.04.21 280 (З) 20000 м    3/0 средняя 
[Ac trans]
+8.7 +3.8 71 +8  1020.9  1.1  759  296  +4.6    0.7     
09 17.04.21 200 (Ю) 20000 м    8/8 870 м 
[Cu hum]
+12.4 +5.2 61 +11  1021.1  0.3  760  292           
12 17.04.21 200 (Ю) 20000 м    8/3 600 м средняя, верхняя 
[Sc|Ac trans|Ci fib]
+10.3 +7.6 83 +9  1020.9  -0.3  759  294           
15 17.04.21 200 (Ю) 20000 м    6/3 600 м средняя, верхняя 
[Sc|Ac trans|Cs]
+9.1 +6.7 85 +8  1020.9  759  295           
18 17.04.21 270 (З) 20000 м    3/0 верхняя 
[Cs]
+7.4 +4.4 81 +7  1021.4  0.4  760  297          полностью
покрыта
пылью 
21 17.04.21 310 (СЗ) 20000 м    3/0 средняя 
[Ac trans]
+6.7 +3.4 79 +5  1020.7  -0.7  759  298           
00 18.04.21 330 (СЗ) 20000 м    ясно 
+5.8 +2.1 77 +4    -1.4             
03 18.04.21 060 (СВ) 20000 м    8/0 средняя, верхняя 
[Ac trans|Cc]
+6.9 +1.7 69 +7  1018.7  -0.6  758  297           
06 18.04.21 090 (В) 20000 м    9/0 средняя, верхняя 
[Ac trans|Cc]
+9.4 +5.6 77 +9  1018.8  0.2  758  294  +5.4         
09 18.04.21 110 (В) 20000 м    6/3 1000 м средняя, верхняя 
[Cu med, cong|Ac trans|Cc]
+11 +7 76 +10  1018.3  -0.4  757  292         
12 18.04.21 100 (В) 20000 м    10/0 средняя 
[Ac As]
+10.2 +4.6 68 +10  1017.3  -1.1  757  293           
15 18.04.21 110 (В) 20000 м    10/0 средняя 
[Ac und]
+10.5 +6.4 76 +11  1016.3  -0.9  756  292           
18 18.04.21 010 (С) 20000 м    8/0 средняя 
[Ac trans]
+10.4 +6.1 75 +12  1016.5  0.2  756  292    +11.3       
21 18.04.21 340 (С) 20000 м    10/0 средняя 
[Ac und]
+9 +5.7 80 +9  1015.7  -0.9  755  294           
00 19.04.21 340 (С) 20000 м    10/0 средняя 
[Ac und]
+9 +5.7 80 +9  1015.7  -0.9  755  294           
03 19.04.21 020 (С) 10 км    10/0 средняя 
[Ac und]
+9 +5.2 77 +8  1014  -1.1  754  293           
06 19.04.21 030 (СВ) 10 км  {ливн. осадки}  10/0 средняя 
[As op]
+9.7 +7.1 84 +10  1014.4  0.5  755  292  +7.6    0.7     
09 19.04.21 100 (В) 10 км  в посл. час ливневой дождь  10/8 720 м средняя 
[Sc|Ac As]
+12 +8.1 77 +12  1013.9  -0.5  754  290           
12 19.04.21 140 (ЮВ) 10 км  в посл. час ливневой дождь  8/4 600 м кучево-дожд., средняя, верхняя 
[Cb cap|Ac trans|Cs]
+13.3 +9.4 77 +14  1013.9  0.1  754  288      0.0     
Время (UTC), дата Ветер
(°,м/с) 
Видим.   Явления Облачность Т
(°С)
Тd
(°С)
f(%) Тe
(°С)
Pmin
(гПа)
dP
(гПа)
Po
(мм)
O2
(г/м3)
Тmin Tmax R s Состояние
почвы

Для получения пояснительной информации подведите курсор к названию столбца.

ПОГОДА в Мариуполе - архив

Всё, что Вы хотите узнать о погоде в Мариуполе - удобно и подробно!

Выберите нужную дату (начиная с 1 января 2019* года) и нажмите кнопку "Найти".
Будут отображены архивные сводки погоды по пункту Мариуполь, начиная с указанной даты.


Отображать данные в формате CSV (для использования в таблицах Excel)


Внимание! Наш архив погоды предназначен исключительно для личного некоммерческого использования в познавательных целях. Если Вам необходимы официальные справки о состоянии погоды (для производственных, юридических, коммерческих и т.п. целей), обращайтесь в органы Росгидромета.

*Примечание: данная дата относится к архиву по метеостанциям СССР (Россия, СНГ, Балтия).
Архив по метеостанциям Зарубежной Европы и Азии (кроме Китая) хранится 10 дней, по другим регионам земного шара (Китай, Африка, Америка, Австралия, Океания) - 1 день.

Мариуполь - район местоположения метеостанции


Название, широта, долгота, высота метеостанции:
Мариуполь (город) 47°ш. 37.5°д. 70 м над ур. моря [Украина]

Дополнительная информация

В oтличие oт бoльшинства пoгoдных сайтoв мы публикуем пoдрoбную метеoинфoрмацию в детальнoм прoфессиoнальнoм фoрмате.

Характеристики температуры и влажнoсти вoздуха измеряются на высoте 2 м в тени вдали oт зданий и деревьев.
Скoрoсть ветра измеряется на высoте 10 м (на урoвне рoста челoвека скoрoсть ветра ниже в 1.5-2 раза). Если метеoстанция нахoдится в гoрoде или в лесу, тo скoрoсть ветра занижена на 2-4 м/с пo сравнению с oткрытым местoм. Скoрoсть ветра над акватoриями крупных рек и oзёр, а также на вершинах хoлмoв на 2-5 м/с выше, чем в oбычных услoвиях.
Атмoсфернoе давление в разных тoчках местнoсти мoжет значительнo oтличаться oт давления на метеoстанции, в зависимoсти oт услoвий рельефа (при пoдъёме на 10 м давление пoнижается примернo на 1 мм рт.ст.).